Date String (YYYY-MM-DD hh:mm:ss) UTC,Instrument flags,absolute air pressure of the measurement (hPa),sample flow rate (lpm),inlet stack bypass flow (lpm),air temperature of the measurement (°C),ambient temperature measured by the external sensor (°C),aerosol sample conditioner tube jacket temperature (°C),OPC LED temperature (°C),internal box temperature (°C),relative humidity of the measurement (%),span deviation,mass concentration of particles derived from Lorenz-Mie calculation of OPC scattering (μg/m³),mass concentration of particles derived from Lorenz-Mie calculation of OPC scattering (μg/m³),mass concentration of particles derived from Lorenz-Mie calculation of OPC scattering (μg/m³)
DateTimeUTC,F1_M11,P_M11,Q1_M11,Q2_M11,T1_M11,T2_M11,T3_M11,T4_M11,T5_M11,U1_M11,ZSPAN_M11,X0_M11,X2_M11,X1_M11
2023-06-25 08:00:00,SystemResetWarning,0835.9,5.00,000.00,030.0,028.5,000.0,038.5,031.6,25.4,0000.0,0009.44,0003.22,0001.63
2023-06-25 08:01:00,SystemResetWarning,0835.9,4.99,000.00,030.0,028.5,000.0,038.5,031.6,25.4,0000.0,0009.24,0003.20,0001.61
2023-06-25 08:02:00,SystemResetWarning,0836.0,5.00,000.00,030.0,028.5,000.0,038.5,031.6,25.3,0000.0,0008.50,0003.16,0001.59
2023-06-25 08:03:00,SystemResetWarning,0836.0,5.01,000.00,030.1,028.5,000.0,038.5,031.6,25.3,0000.0,0009.17,0003.14,0001.57
2023-06-25 08:04:00,SystemResetWarning,0836.0,5.00,000.00,030.1,028.6,000.0,038.5,031.6,25.3,0000.0,0009.13,0003.09,0001.53
2023-06-25 08:05:00,SystemResetWarning,0836.1,5.00,000.00,030.1,028.6,000.0,038.6,031.6,25.3,0000.0,0009.24,0003.09,0001.54
2023-06-25 08:06:00,SystemResetWarning,0836.1,5.00,000.00,030.1,028.6,000.0,038.6,031.7,25.2,0000.0,0009.46,0003.10,0001.55
2023-06-25 08:07:00,SystemResetWarning,0836.1,4.99,000.00,030.1,028.6,000.0,038.6,031.7,25.1,0000.0,0009.21,0003.09,0001.55
2023-06-25 08:08:00,SystemResetWarning,0836.1,5.00,000.00,030.1,028.6,000.0,038.6,031.7,25.1,0000.0,0009.01,0003.12,0001.58
2023-06-25 08:09:00,SystemResetWarning,0836.1,5.01,000.00,030.1,028.6,000.0,038.6,031.7,25.0,0000.0,0009.12,0003.11,0001.59
2023-06-25 08:10:00,SystemResetWarning,0836.1,5.01,000.00,030.2,028.6,000.0,038.6,031.7,25.0,0000.0,0010.49,0003.18,0001.60
2023-06-25 08:11:00,SystemResetWarning,0836.1,5.00,000.00,030.2,028.6,000.0,038.6,031.7,25.0,0000.0,0011.28,0003.23,0001.61
2023-06-25 08:12:00,SystemResetWarning,0836.1,4.98,000.00,030.2,028.6,000.0,038.7,031.7,25.0,0000.0,0011.78,0003.24,0001.63
2023-06-25 08:13:00,SystemResetWarning,0836.1,5.00,000.00,030.2,028.6,000.0,038.7,031.7,25.0,0000.0,0012.36,0003.25,0001.66
2023-06-25 08:14:00,SystemResetWarning,0836.1,5.00,000.00,030.2,028.7,000.0,038.7,031.7,24.9,0000.0,0011.91,0003.32,0001.69
2023-06-25 08:15:00,SystemResetWarning,0836.1,5.01,000.00,030.2,028.7,000.0,038.7,031.7,24.9,0000.0,0011.82,0003.34,0001.71
2023-06-25 08:16:00,SystemResetWarning,0836.1,5.00,000.00,030.2,028.7,000.0,038.7,031.7,24.9,0000.0,0011.85,0003.36,0001.72
2023-06-25 08:17:00,SystemResetWarning,0836.1,5.00,000.00,030.2,028.7,000.0,038.7,031.8,24.9,0000.0,0012.58,0003.38,0001.73
2023-06-25 08:18:00,SystemResetWarning,0836.1,5.00,000.00,030.3,028.7,000.0,038.7,031.8,24.9,0000.0,0012.98,0003.40,0001.74
2023-06-25 08:19:00,SystemResetWarning,0836.0,5.00,000.00,030.3,028.7,000.0,038.8,031.8,24.9,0000.0,0013.54,0003.44,0001.76
2023-06-25 08:20:00,SystemResetWarning,0836.0,5.00,000.00,030.3,028.7,000.0,038.8,031.8,24.9,0000.0,0013.71,0003.45,0001.77
2023-06-25 08:21:00,SystemResetWarning,0836.0,5.01,000.00,030.3,028.7,000.0,038.8,031.8,24.9,0000.0,0012.80,0003.43,0001.77
2023-06-25 08:22:00,SystemResetWarning,0836.0,4.99,000.00,030.3,028.2,000.0,038.8,031.8,24.9,0000.0,0012.52,0003.41,0001.76
2023-06-25 08:23:00,SystemResetWarning,0836.0,4.99,000.00,030.3,025.7,000.0,038.7,031.7,24.9,0000.0,0012.41,0003.41,0001.76
2023-06-25 08:24:00,SystemResetWarning,0836.0,5.01,000.00,030.2,024.6,000.0,038.6,031.5,25.0,0000.0,0012.75,0003.44,0001.75
2023-06-25 08:25:00,SystemResetWarning,0835.9,5.02,000.00,030.0,024.7,000.0,038.6,031.1,25.2,0000.0,0013.65,0003.42,0001.74
2023-06-25 08:26:00,SystemResetWarning,0836.0,5.00,000.00,029.9,025.1,000.0,038.6,031.1,25.6,0000.0,0013.86,0003.40,0001.72
2023-06-25 08:27:00,SystemResetWarning,0835.9,5.00,000.00,029.9,025.6,000.0,038.5,031.1,25.7,0000.0,0013.77,0003.38,0001.71
2023-06-25 08:28:00,SystemResetWarning,0836.0,5.01,000.00,029.8,026.1,000.0,038.5,031.1,25.7,0000.0,0012.84,0003.38,0001.72
2023-06-25 08:29:00,SystemResetWarning,0836.0,4.98,000.00,029.8,026.5,000.0,038.5,031.1,25.8,0000.0,0012.45,0003.38,0001.72
2023-06-25 08:30:00,SystemResetWarning,0836.0,5.00,000.00,029.8,026.8,000.0,038.5,031.1,25.8,0000.0,0012.00,0003.33,0001.71
2023-06-25 08:31:00,SystemResetWarning,0836.1,5.01,000.00,029.8,027.1,000.0,038.5,031.1,25.9,0000.0,0011.53,0003.31,0001.70
2023-06-25 08:32:00,SystemResetWarning,0836.1,4.99,000.00,029.8,027.3,000.0,038.4,031.2,25.9,0000.0,0011.28,0003.28,0001.70
2023-06-25 08:33:00,SystemResetWarning,0836.1,4.99,000.00,029.8,027.5,000.0,038.4,031.2,26.0,0000.0,0011.25,0003.26,0001.70
2023-06-25 08:34:00,SystemResetWarning,0836.1,5.03,000.00,029.8,027.6,000.0,038.4,031.2,26.0,0000.0,0010.88,0003.23,0001.70
2023-06-25 08:35:00,SystemResetWarning,0836.1,4.99,000.00,029.8,027.8,000.0,038.4,031.2,26.0,0000.0,0010.28,0003.20,0001.69
2023-06-25 08:36:00,SystemResetWarning,0836.1,4.99,000.00,029.8,027.9,000.0,038.4,031.3,26.0,0000.0,0009.50,0003.18,0001.70
2023-06-25 08:37:00,SystemResetWarning,0836.1,5.00,000.00,029.8,027.9,000.0,038.4,031.3,26.0,0000.0,0008.98,0003.17,0001.70
2023-06-25 08:38:00,SystemResetWarning,0836.1,5.01,000.00,029.8,028.0,000.0,038.4,031.3,26.0,0000.0,0008.94,0003.18,0001.72
2023-06-25 08:39:00,SystemResetWarning,0836.1,5.01,000.00,029.8,028.1,000.0,038.4,031.4,25.9,0000.0,0010.21,0003.21,0001.71
2023-06-25 08:40:00,SystemResetWarning,0836.1,5.00,000.00,029.9,028.1,000.0,038.4,031.4,26.0,0000.0,0011.36,0003.23,0001.71
2023-06-25 08:41:00,SystemResetWarning,0836.1,5.00,000.00,029.9,028.2,000.0,038.4,031.4,26.0,0000.0,0011.45,0003.24,0001.72
2023-06-25 08:42:00,SystemResetWarning,0836.1,5.00,000.00,029.9,028.2,000.0,038.4,031.4,25.9,0000.0,0011.88,0003.27,0001.71
2023-06-25 08:43:00,SystemResetWarning,0836.1,5.00,000.00,029.9,028.3,000.0,038.4,031.4,25.9,0000.0,0012.13,0003.27,0001.72
2023-06-25 08:44:00,SystemResetWarning,0836.1,5.00,000.00,029.9,028.3,000.0,038.4,031.4,25.9,0000.0,0011.71,0003.25,0001.72
2023-06-25 08:45:00,SystemResetWarning,0836.1,5.00,000.00,029.9,028.3,000.0,038.5,031.4,25.9,0000.0,0011.58,0003.26,0001.73
2023-06-25 08:46:00,SystemResetWarning,0836.1,5.00,000.00,029.9,028.3,000.0,038.5,031.4,25.8,0000.0,0011.47,0003.25,0001.73
2023-06-25 08:47:00,SystemResetWarning,0836.1,5.00,000.00,030.0,028.4,000.0,038.5,031.5,25.8,0000.0,0010.75,0003.26,0001.72
2023-06-25 08:48:00,SystemResetWarning,0836.1,4.99,000.00,030.0,028.4,000.0,038.5,031.5,25.8,0000.0,0010.63,0003.27,0001.72
2023-06-25 08:49:00,SystemResetWarning,0836.1,5.00,000.00,030.0,028.4,000.0,038.5,031.5,25.8,0000.0,0011.68,0003.33,0001.71
2023-06-25 08:50:00,SystemResetWarning,0836.1,5.00,000.00,030.0,028.5,000.0,038.5,031.5,25.7,0000.0,0010.84,0003.30,0001.70
2023-06-25 08:51:00,SystemResetWarning,0836.1,5.00,000.00,030.0,028.5,000.0,038.5,031.6,25.7,0000.0,0009.75,0003.32,0001.71
2023-06-25 08:52:00,SystemResetWarning,0836.1,5.00,000.00,030.0,028.5,000.0,038.5,031.6,25.7,0000.0,0010.23,0003.37,0001.71
2023-06-25 08:53:00,SystemResetWarning,0836.1,5.00,000.00,030.1,028.5,000.0,038.5,031.6,25.6,0000.0,0010.48,0003.39,0001.72
2023-06-25 08:54:00,SystemResetWarning,0836.1,5.00,000.00,030.1,028.6,000.0,038.6,031.6,25.6,0000.0,0010.18,0003.37,0001.71
2023-06-25 08:55:00,SystemResetWarning,0836.1,5.00,000.00,030.1,028.6,000.0,038.6,031.6,25.6,0000.0,0010.41,0003.41,0001.70
2023-06-25 08:56:00,SystemResetWarning,0836.2,5.01,000.00,030.1,028.6,000.0,038.6,031.7,25.6,0000.0,0010.82,0003.41,0001.68
2023-06-25 08:57:00,SystemResetWarning,0836.2,5.00,000.00,030.1,028.6,000.0,038.6,031.7,25.6,0000.0,0011.39,0003.45,0001.66
2023-06-25 08:58:00,SystemResetWarning,0836.2,5.00,000.00,030.1,028.6,000.0,038.6,031.7,25.6,0000.0,0011.38,0003.43,0001.67
2023-06-25 08:59:00,SystemResetWarning,0836.2,5.00,000.00,030.1,028.6,000.0,038.6,031.7,25.6,0000.0,0011.94,0003.42,0001.68
